DN1US-13 Weather Reports


Display with metric or nautical units.
time (UTC)temp
F
wind
direction
speed
MPH
gust
MPH
rain 1hr
in
rain 24hr
in
rain mn
in
humidity
%
barometer
mb
20260506205757 48 0 0.0 0.0 0.00 0.00 0.00 10 985.9
20260506205253 48 0 0.0 0.0 0.00 0.00 0.00 10 985.9
20260506204752 48 0 0.0 0.0 0.00 0.00 0.00 10 985.9
20260506204245 48 0 0.0 0.0 0.00 0.00 0.00 10 985.8
20260506203741 48 0 0.0 0.0 0.00 0.00 0.00 10 985.9
20260506203237 48 0 0.0 0.0 0.00 0.00 0.00 10 985.9
20260506202733 48 0 0.0 0.0 0.00 0.00 0.00 10 985.8
20260506202232 48 0 0.0 0.0 0.00 0.00 0.00 10 985.7
20260506201725 49 0 0.0 0.0 0.00 0.00 0.00 10 985.7
20260506201221 49 0 0.0 0.0 0.00 0.00 0.00 10 985.6
20260506200718 49 0 0.0 0.0 0.00 0.00 0.00 10 985.7
20260506200214 49 0 0.0 0.0 0.00 0.00 0.00 10 985.7
20260506195712 49 0 0.0 0.0 0.00 0.00 0.00 10 985.7
20260506195206 49 0 0.0 0.0 0.00 0.00 0.00 10 985.6
20260506194702 49 0 0.0 0.0 0.00 0.00 0.00 10 985.4
20260506194158 49 0 0.0 0.0 0.00 0.00 0.00 10 985.5
20260506193654 49 0 0.0 0.0 0.00 0.00 0.00 10 985.3
20260506193152 50 0 0.0 0.0 0.00 0.00 0.00 10 985.3
20260506192646 50 0 0.0 0.0 0.00 0.00 0.00 10 985.3
20260506192142 50 0 0.0 0.0 0.00 0.00 0.00 10 985.1
20260506191638 50 0 0.0 0.0 0.00 0.00 0.00 10 985.0
20260506191134 50 0 0.0 0.0 0.00 0.00 0.00 10 984.9
20260506190632 50 0 0.0 0.0 0.00 0.00 0.00 10 984.9
20260506190126 50 0 0.0 0.0 0.00 0.00 0.00 10 984.9
20260506185622 50 0 0.0 0.0 0.00 0.00 0.00 10 984.9
20260506185118 50 0 0.0 0.0 0.00 0.00 0.00 10 984.9
20260506184614 50 0 0.0 0.0 0.00 0.00 0.00 10 984.7
20260506184112 50 0 0.0 0.0 0.00 0.00 0.00 10 984.7
20260506183606 50 0 0.0 0.0 0.00 0.00 0.00 10 984.7
20260506182558 50 0 0.0 0.0 0.00 0.00 0.00 10 984.7
20260506182054 51 0 0.0 0.0 0.00 0.00 0.00 10 984.5
20260506181552 51 0 0.0 0.0 0.00 0.00 0.00 10 984.4
20260506181046 51 0 0.0 0.0 0.00 0.00 0.00 10 984.4
20260506180542 51 0 0.0 0.0 0.00 0.00 0.00 10 984.5
20260506180038 51 0 0.0 0.0 0.00 0.00 0.00 10 984.4
20260506175534 52 0 0.0 0.0 0.00 0.00 0.00 10 984.2
20260506175032 52 0 0.0 0.0 0.00 0.00 0.00 10 984.3
20260506174526 52 0 0.0 0.0 0.00 0.00 0.00 10 984.3
20260506174022 52 0 0.0 0.0 0.00 0.00 0.00 10 984.1
20260506173518 52 0 0.0 0.0 0.00 0.00 0.00 10 984.0
20260506173014 52 0 0.0 0.0 0.00 0.00 0.00 10 983.9
20260506172512 52 0 0.0 0.0 0.00 0.00 0.00 10 983.9
20260506172006 52 0 0.0 0.0 0.00 0.00 0.00 10 983.7
20260506171503 52 0 0.0 0.0 0.00 0.00 0.00 10 983.6
20260506170959 52 0 0.0 0.0 0.00 0.00 0.00 10 983.6
20260506170455 52 0 0.0 0.0 0.00 0.00 0.00 10 983.7
20260506165952 52 0 0.0 0.0 0.00 0.00 0.00 10 983.7
20260506165447 52 0 0.0 0.0 0.00 0.00 0.00 10 983.7
20260506164943 52 0 0.0 0.0 0.00 0.00 0.00 10 983.8
20260506164439 52 0 0.0 0.0 0.00 0.00 0.00 10 983.7
20260506163432 52 0 0.0 0.0 0.00 0.00 0.00 10 983.7
20260506162927 52 0 0.0 0.0 0.00 0.00 0.00 10 983.8
20260506162423 51 0 0.0 0.0 0.00 0.00 0.00 10 983.7
20260506161919 52 0 0.0 0.0 0.00 0.00 0.00 10 983.7
20260506161415 52 0 0.0 0.0 0.00 0.00 0.00 10 983.5
20260506160912 52 0 0.0 0.0 0.00 0.00 0.00 10 983.5
20260506160407 52 0 0.0 0.0 0.00 0.00 0.00 10 983.4
20260506155903 52 0 0.0 0.0 0.00 0.00 0.00 10 983.2
20260506155359 52 0 0.0 0.0 0.00 0.00 0.00 10 983.2
20260506154352 53 0 0.0 0.0 0.00 0.00 0.00 10 982.9
20260506153847 54 0 0.0 0.0 0.00 0.00 0.00 10 982.9
20260506153343 55 0 0.0 0.0 0.00 0.00 0.00 10 982.6
20260506152839 55 0 0.0 0.0 0.00 0.00 0.00 10 982.2
20260506152335 56 0 0.0 0.0 0.00 0.00 0.00 10 982.1
20260506151832 57 0 0.0 0.0 0.00 0.00 0.00 10 982.0
20260506151327 57 0 0.0 0.0 0.00 0.00 0.00 10 981.9
20260506150823 58 0 0.0 0.0 0.00 0.00 0.00 10 981.7
20260506150319 59 0 0.0 0.0 0.00 0.00 0.00 10 981.6
20260506145312 61 0 0.0 0.0 0.00 0.00 0.00 10 981.7
20260506144807 66 0 0.0 0.0 0.00 0.00 0.00 96 981.6
20260506144303 65 0 0.0 0.0 0.00 0.00 0.00 98 981.5
20260506143759 66 0 0.0 0.0 0.00 0.00 0.00 95 981.5
20260506143255 65 0 0.0 0.0 0.00 0.00 0.00 10 981.6
20260506142752 66 0 0.0 0.0 0.00 0.00 0.00 92 981.6
20260506142247 66 0 0.0 0.0 0.00 0.00 0.00 97 981.6
20260506141743 65 0 0.0 0.0 0.00 0.00 0.00 95 981.5
20260506141239 66 0 0.0 0.0 0.00 0.00 0.00 97 981.5
20260506140735 66 0 0.0 0.0 0.00 0.00 0.00 90 981.4
20260506140232 67 0 0.0 0.0 0.00 0.00 0.00 92 981.4
20260506135728 65 0 0.0 0.0 0.00 0.00 0.00 95 981.5
20260506135224 68 0 0.0 0.0 0.00 0.00 0.00 87 981.5
20260506134720 67 0 0.0 0.0 0.00 0.00 0.00 94 981.5
20260506134216 66 0 0.0 0.0 0.00 0.00 0.00 96 981.6
20260506133712 66 0 0.0 0.0 0.00 0.00 0.00 98 981.7
20260506133208 65 0 0.0 0.0 0.00 0.00 0.00 10 981.7
20260506132704 65 0 0.0 0.0 0.00 0.00 0.00 10 981.7
20260506132200 64 0 0.0 0.0 0.00 0.00 0.00 99 981.7
20260506131656 66 0 0.0 0.0 0.00 0.00 0.00 97 981.7
20260506131152 64 0 0.0 0.0 0.00 0.00 0.00 10 981.7
20260506130648 68 0 0.0 0.0 0.00 0.00 0.00 88 981.6
20260506130144 65 0 0.0 0.0 0.00 0.00 0.00 95 981.6
20260506125640 66 0 0.0 0.0 0.00 0.00 0.00 92 981.7
20260506125136 65 0 0.0 0.0 0.00 0.00 0.00 93 981.6
20260506124632 68 0 0.0 0.0 0.00 0.00 0.00 84 981.6
20260506124128 68 0 0.0 0.0 0.00 0.00 0.00 83 981.6
20260506123624 69 0 0.0 0.0 0.00 0.00 0.00 82 981.6
20260506123120 68 0 0.0 0.0 0.00 0.00 0.00 83 981.6
20260506122616 69 0 0.0 0.0 0.00 0.00 0.00 79 981.6
20260506122112 68 0 0.0 0.0 0.00 0.00 0.00 93 981.6
20260506121608 65 0 0.0 0.0 0.00 0.00 0.00 96 981.7
20260506121104 65 0 0.0 0.0 0.00 0.00 0.00 97 981.7
20260506120600 68 0 0.0 0.0 0.00 0.00 0.00 86 981.7
20260506120056 68 0 0.0 0.0 0.00 0.00 0.00 86 981.7
20260506115552 66 0 0.0 0.0 0.00 0.00 0.00 89 981.8
20260506115048 67 0 0.0 0.0 0.00 0.00 0.00 93 981.8
20260506114544 65 0 0.0 0.0 0.00 0.00 0.00 10 981.8
20260506114040 63 0 0.0 0.0 0.00 0.00 0.00 10 981.8
20260506113536 64 0 0.0 0.0 0.00 0.00 0.00 10 981.7
20260506113032 65 0 0.0 0.0 0.00 0.00 0.00 96 981.7
20260506112528 67 0 0.0 0.0 0.00 0.00 0.00 95 981.7
20260506112025 65 0 0.0 0.0 0.00 0.00 0.00 10 981.8
20260506111520 66 0 0.0 0.0 0.00 0.00 0.00 10 981.8
20260506111017 67 0 0.0 0.0 0.00 0.00 0.00 10 981.8
20260506110512 64 0 0.0 0.0 0.00 0.00 0.00 10 981.9
20260506110009 63 0 0.0 0.0 0.00 0.00 0.00 10 982.0
20260506105505 64 0 0.0 0.0 0.00 0.00 0.00 10 982.0
20260506105001 63 0 0.0 0.0 0.00 0.00 0.00 10 982.0
20260506104457 61 0 0.0 0.0 0.00 0.00 0.00 10 982.2
20260506103953 61 0 0.0 0.0 0.00 0.00 0.00 10 982.2
20260506103449 61 0 0.0 0.0 0.00 0.00 0.00 10 982.3
20260506102945 62 0 0.0 0.0 0.00 0.00 0.00 10 982.4
20260506102441 63 0 0.0 0.0 0.00 0.00 0.00 10 982.5
20260506101937 63 0 0.0 0.0 0.00 0.00 0.00 10 982.6
20260506101433 63 0 0.0 0.0 0.00 0.00 0.00 10 982.6
20260506100929 63 0 0.0 0.0 0.00 0.00 0.00 10 982.6
20260506100425 64 0 0.0 0.0 0.00 0.00 0.00 10 982.6
20260506095921 63 0 0.0 0.0 0.00 0.00 0.00 10 982.6
20260506095418 63 0 0.0 0.0 0.00 0.00 0.00 10 982.6
20260506094913 65 0 0.0 0.0 0.00 0.00 0.00 10 982.6
20260506094412 65 0 0.0 0.0 0.00 0.00 0.00 10 982.6
20260506093905 67 0 0.0 0.0 0.00 0.00 0.00 10 982.6
20260506093401 64 0 0.0 0.0 0.00 0.00 0.00 10 982.6
20260506092857 63 0 0.0 0.0 0.00 0.00 0.00 10 982.6
20260506092353 64 0 0.0 0.0 0.00 0.00 0.00 10 982.6
20260506091852 63 0 0.0 0.0 0.00 0.00 0.00 10 982.6
20260506091345 64 0 0.0 0.0 0.00 0.00 0.00 10 982.6
20260506090841 64 0 0.0 0.0 0.00 0.00 0.00 10 982.5
20260506090337 63 0 0.0 0.0 0.00 0.00 0.00 10 982.4
20260506085833 62 0 0.0 0.0 0.00 0.00 0.00 10 982.4
20260506085332 61 0 0.0 0.0 0.00 0.00 0.00 10 982.4
20260506084825 62 0 0.0 0.0 0.00 0.00 0.00 10 982.4
20260506084321 62 0 0.0 0.0 0.00 0.00 0.00 10 982.4
20260506083817 61 0 0.0 0.0 0.00 0.00 0.00 10 982.5
20260506083313 61 0 0.0 0.0 0.00 0.00 0.00 10 982.5
20260506082812 61 0 0.0 0.0 0.00 0.00 0.00 10 982.5
20260506082305 60 0 0.0 0.0 0.00 0.00 0.00 10 982.5
20260506081801 61 0 0.0 0.0 0.00 0.00 0.00 10 982.5
20260506081258 60 0 0.0 0.0 0.00 0.00 0.00 10 982.6
20260506080754 60 0 0.0 0.0 0.00 0.00 0.00 10 982.6
20260506080252 60 0 0.0 0.0 0.00 0.00 0.00 10 982.6
20260506073226 57 0 0.0 0.0 0.00 0.00 0.00 10 982.9
20260506072722 57 0 0.0 0.0 0.00 0.00 0.00 10 983.0
20260506072218 57 0 0.0 0.0 0.00 0.00 0.00 10 983.0
20260506071714 56 0 0.0 0.0 0.00 0.00 0.00 10 983.0
20260506071212 56 0 0.0 0.0 0.00 0.00 0.00 10 983.0
20260506070706 57 0 0.0 0.0 0.00 0.00 0.00 10 982.9
20260506070202 58 0 0.0 0.0 0.00 0.00 0.00 10 982.8
20260506062132 62 0 0.0 0.0 0.00 0.00 0.00 10 982.6
20260506061626 62 0 0.0 0.0 0.00 0.00 0.00 10 982.6
20260506061122 57 0 0.0 0.0 0.00 0.00 0.00 10 982.6
20260506060618 59 0 0.0 0.0 0.00 0.00 0.00 10 982.7
20260506060114 56 0 0.0 0.0 0.00 0.00 0.00 10 982.7
20260506051035 49 0 0.0 0.0 0.00 0.00 0.00 10 983.2
20260506050532 48 0 0.0 0.0 0.00 0.00 0.00 10 983.1
20260506045019 48 0 0.0 0.0 0.00 0.00 0.00 10 983.2
20260506044515 47 0 0.0 0.0 0.00 0.00 0.00 10 983.3
20260506044012 46 0 0.0 0.0 0.00 0.00 0.00 10 983.4
20260506043507 46 0 0.0 0.0 0.00 0.00 0.00 10 983.4
20260506043003 46 0 0.0 0.0 0.00 0.00 0.00 10 983.5
20260506042459 46 0 0.0 0.0 0.00 0.00 0.00 10 983.6
20260506041955 45 0 0.0 0.0 0.00 0.00 0.00 10 983.7
20260506041452 46 0 0.0 0.0 0.00 0.00 0.00 10 983.6
20260506040947 45 0 0.0 0.0 0.00 0.00 0.00 10 983.6
20260506040443 45 0 0.0 0.0 0.00 0.00 0.00 10 983.5
20260506035939 44 0 0.0 0.0 0.00 0.00 0.00 10 983.6
20260506034932 46 0 0.0 0.0 0.00 0.00 0.00 10 983.7
20260506034427 46 0 0.0 0.0 0.00 0.00 0.00 10 983.7
20260506033923 46 0 0.0 0.0 0.00 0.00 0.00 10 983.7
20260506033419 45 0 0.0 0.0 0.00 0.00 0.00 10 983.7
20260506032915 46 0 0.0 0.0 0.00 0.00 0.00 10 983.7
20260506032412 46 0 0.0 0.0 0.00 0.00 0.00 10 983.8
20260506031907 46 0 0.0 0.0 0.00 0.00 0.00 10 983.9
20260506031403 46 0 0.0 0.0 0.00 0.00 0.00 10 984.0
20260506030859 46 0 0.0 0.0 0.00 0.00 0.00 10 983.9
20260506025852 45 0 0.0 0.0 0.00 0.00 0.00 10 984.0
20260506025347 46 0 0.0 0.0 0.00 0.00 0.00 10 984.1
20260506024843 46 0 0.0 0.0 0.00 0.00 0.00 10 984.1
20260506024339 46 0 0.0 0.0 0.00 0.00 0.00 10 984.2
20260506023835 45 0 0.0 0.0 0.00 0.00 0.00 10 984.1
20260506023332 46 0 0.0 0.0 0.00 0.00 0.00 10 984.1
20260506022827 46 0 0.0 0.0 0.00 0.00 0.00 10 984.2
20260506022323 46 0 0.0 0.0 0.00 0.00 0.00 10 984.2
20260506021820 46 0 0.0 0.0 0.00 0.00 0.00 10 984.1
20260506021316 46 0 0.0 0.0 0.00 0.00 0.00 10 983.9
20260506020812 46 0 0.0 0.0 0.00 0.00 0.00 10 983.9
20260506020308 47 0 0.0 0.0 0.00 0.00 0.00 10 983.9
20260506015804 47 0 0.0 0.0 0.00 0.00 0.00 10 984.0
20260506015300 47 0 0.0 0.0 0.00 0.00 0.00 10 984.2
20260506014756 47 0 0.0 0.0 0.00 0.00 0.00 10 984.1
20260506014252 47 0 0.0 0.0 0.00 0.00 0.00 10 984.2
20260506013748 47 0 0.0 0.0 0.00 0.00 0.00 10 984.3
20260506013244 47 0 0.0 0.0 0.00 0.00 0.00 10 984.4
20260506012740 47 0 0.0 0.0 0.00 0.00 0.00 10 984.5
20260506012236 47 0 0.0 0.0 0.00 0.00 0.00 10 984.6
20260506011732 47 0 0.0 0.0 0.00 0.00 0.00 10 984.7
20260506011228 47 0 0.0 0.0 0.00 0.00 0.00 10 984.7
20260506010724 47 0 0.0 0.0 0.00 0.00 0.00 10 984.6
20260506010220 47 0 0.0 0.0 0.00 0.00 0.00 10 984.5
20260506005716 46 0 0.0 0.0 0.00 0.00 0.00 10 984.4
20260506005212 47 0 0.0 0.0 0.00 0.00 0.00 10 984.4
20260506004708 46 0 0.0 0.0 0.00 0.00 0.00 10 984.3
20260506004204 46 0 0.0 0.0 0.00 0.00 0.00 10 984.4
20260506003700 46 0 0.0 0.0 0.00 0.00 0.00 10 984.3
20260506003156 46 0 0.0 0.0 0.00 0.00 0.00 10 984.3
20260506002652 48 0 0.0 0.0 0.00 0.00 0.00 10 984.5
20260506002148 47 0 0.0 0.0 0.00 0.00 0.00 10 984.6
20260506001644 47 0 0.0 0.0 0.00 0.00 0.00 10 984.6
20260506001140 48 0 0.0 0.0 0.00 0.00 0.00 10 984.7
20260506000636 48 0 0.0 0.0 0.00 0.00 0.00 10 984.7
20260506000132 48 0 0.0 0.0 0.00 0.00 0.00 10 984.8
20260505235628 47 0 0.0 0.0 0.00 0.00 0.00 10 984.9
20260505235124 47 0 0.0 0.0 0.00 0.00 0.00 10 984.8
20260505234620 46 0 0.0 0.0 0.00 0.00 0.00 10 984.8
20260505234116 47 0 0.0 0.0 0.00 0.00 0.00 10 984.9
20260505233612 47 0 0.0 0.0 0.00 0.00 0.00 10 984.9
20260505233108 47 0 0.0 0.0 0.00 0.00 0.00 10 984.9
20260505232604 47 0 0.0 0.0 0.00 0.00 0.00 10 984.8
20260505232100 47 0 0.0 0.0 0.00 0.00 0.00 10 984.8
20260505231557 48 0 0.0 0.0 0.00 0.00 0.00 10 984.9
20260505231053 48 0 0.0 0.0 0.00 0.00 0.00 10 984.9
20260505230549 48 0 0.0 0.0 0.00 0.00 0.00 10 985.0
20260505230045 48 0 0.0 0.0 0.00 0.00 0.00 10 985.0
20260505225541 50 0 0.0 0.0 0.00 0.00 0.00 10 984.9
20260505225037 50 0 0.0 0.0 0.00 0.00 0.00 10 985.0
20260505224533 50 0 0.0 0.0 0.00 0.00 0.00 10 984.9
20260505224029 51 0 0.0 0.0 0.00 0.00 0.00 10 984.9
20260505223525 50 0 0.0 0.0 0.00 0.00 0.00 10 984.9
20260505223021 50 0 0.0 0.0 0.00 0.00 0.00 10 984.9
20260505222517 51 0 0.0 0.0 0.00 0.00 0.00 10 984.8
20260505222013 52 0 0.0 0.0 0.00 0.00 0.00 10 984.8
20260505221509 52 0 0.0 0.0 0.00 0.00 0.00 10 984.9
20260505221005 51 0 0.0 0.0 0.00 0.00 0.00 10 984.9
20260505220501 52 0 0.0 0.0 0.00 0.00 0.00 10 984.9
20260505215957 52 0 0.0 0.0 0.00 0.00 0.00 10 984.9
20260505215453 53 0 0.0 0.0 0.00 0.00 0.00 10 984.8
20260505214952 53 0 0.0 0.0 0.00 0.00 0.00 10 985.0
20260505214445 53 0 0.0 0.0 0.00 0.00 0.00 10 985.0
20260505213941 53 0 0.0 0.0 0.00 0.00 0.00 10 985.0
20260505213437 53 0 0.0 0.0 0.00 0.00 0.00 10 984.9
20260505212933 53 0 0.0 0.0 0.00 0.00 0.00 10 984.9
20260505212432 53 0 0.0 0.0 0.00 0.00 0.00 10 984.9
20260505211925 53 0 0.0 0.0 0.00 0.00 0.00 10 984.9
20260505211421 54 0 0.0 0.0 0.00 0.00 0.00 10 984.9
20260505210917 54 0 0.0 0.0 0.00 0.00 0.00 10 984.9
20260505210413 54 0 0.0 0.0 0.00 0.00 0.00 10 984.9